User: anonymous   Login
Location: Sewell
(39.7660°N, 75.1450°W)
Time: 02:18:35
(UTC-05:00)
Language:

ISS - Orbit

View from above orbital plane
View from above orbital plane
View from above satellite
View from above satellite

Ground track
Ground track

The orbit data is extracted from the following two-line orbital elements,

1 25544U 98067A   14333.08572686  .00018242  00000-0  30875-3 0  4769
2 25544 051.6479 002.0197 0007343 078.4428 313.9055 15.51595686916916
Epoch (UTC): 29 November 2014 02:03:26
Eccentricity: 0.0007343
inclination: 51.6479°
perigee height: 407 km
apogee height: 417 km
right ascension of ascending node: 2.0197°
argument of perigee: 78.4428°
revolutions per day: 15.51595686
mean anomaly at epoch: 313.9055°
orbit number at epoch: 91691

The dashed part of the orbit path shows where the satellite is in the earth's shadow,  

DLR